Погода в Ижевске

Хотите узнать прогноз погоды в Ижевске? Тогда Вам сюда: Погода в Ижевске

Поиск расширенной информации на нашем сайте:

Полезная информация:

Новости сайта



02.01.2020
Опубликован Долгосрочный прогноз погоды по городам России и ближнего зарубежья на январь 2020 года.
Карты: Прогноз на январь и февраль 2020 года, Сравнение прогнозируемой аномалии приземной температуры воздуха на январь 2020 года по разным моделям.




Погода в Ижевске - сегодня

Время (UTC), дата Ветер
(°,м/с) 
Видим.   Явления Облачность Т
(°С)
Тd
(°С)
f(%) Тe
(°С)
Pmin
(гПа)
dP
(гПа)
Po
(мм)
O2
(г/м3)
Тmin Tmax R s Состояние
почвы
00 19.01.20 тихо () -2{03}  10 км    10/10 300 м 
[Sc]
-0.4 -1.3 94 -0  1022.2  -0.1  751  303           
03 19.01.20 220 (ЮЗ) 2-3{04}  10 км  {снег}  10/10 300 м 
[Sc]
-0.6 -1.2 96 -1  1021.4  -0.8  751  303  -0.8    0.3  25  равномерный
мокрый или
старый снег
100% 
06 19.01.20 210 (ЮЗ) 2-3{05}  10 км  {снег}  10/10 300 м 
[Sc]
-0.1 -1.2 92 -1  1020.6  -0.8  750  303           
09 19.01.20 210 (ЮЗ) 3-5{07}  10 км  в посл. час снег  10/10 600 м 
[Sc]
+0.2 -2.1 85 -2  1019  -1.6  749  302           
12 19.01.20 240 (ЮЗ) 3-5{08}  10 км  слаб. снег  10/8 300 м средняя 
[Sc|Ac As]
+0.1 -1 92 -2  1018  -1  748  301           
15 19.01.20 220 (ЮЗ) 2-4{07}  10 км  слаб. снег  10/8 300 м средняя 
[Sc|Ac As]
-0.4 -1.9 90 -1  1017.9  -0.1  748  302    +0.2  0.5     
18 19.01.20 260 (З) 2-4{06}  10 км  слаб. снег  10/8 300 м средняя 
[Sc|Ac As]
-0.5 -1.4 94 -1  1017.5  -0.3  748  302           
21 19.01.20 280 (З) 3-5{06}  10 км  в посл. час снег  10/10 300 м 
[Sc]
-0.3 -1.8 90 -2  1017.4  -0.1  748  302           
00 20.01.20 260 (З) 2-4{06}  10 км  {снег}  10/10 300 м 
[Sc]
-0.5 -1.7 92 -1  1016.8  -0.6  747  302           
03 20.01.20 260 (З) 2-3{05}  10 км  слаб. снег  10/8 300 м средняя 
[Sc|Ac As]
-0.6 -1 97 -1  1015.6  -1.2  747  302  -0.8    0.4  25  равномерный
мокрый или
старый снег
100% 
06 20.01.20 250 (З) 2-3{05}  10 км  слаб. переохл. морось (гололёд){снег} [диам. гололёда 0 мм]  10/10 200 м 
[St]
-0.5 -0.8 98 -1  1014.6  -1  746  301           
09 20.01.20 250 (З) 2-3{04}  4000 м  слаб. снег{морось} [диам. гололёда 0 мм]  10/10 200 м 
[Frnb|Ns]
+0.2 -0.4 96 -1  1013.5  -1.1  745  300           
12 20.01.20 250 (З) 2-3{04}  2000 м  снег{морось}  10/10 200 м 
[Frnb|Ns]
-0.1 -0.4 98 -1  1012.3  -1.1  744  300           
15 20.01.20 240 (ЮЗ) 2-3{04}  2000 м  снег  10/10 200 м 
[Frnb|Ns]
-0.4 -0.7 98 -1  1012  -0.3  744  300    +0.4     
18 20.01.20 270 (З) 2-3{04}  10 км  слаб. снег  10/10 200 м 
[Frnb|Ns]
-0.6 -1.2 96 -1  1011.3  -0.7  743  300           
21 20.01.20 270 (З) 2-3{04}  10 км  слаб. снег  10/8 300 м средняя 
[Sc|Ac As]
-0.8 -1.5 95 -2  1010.8  -0.5  743  300           
00 21.01.20 230 (ЮЗ) 2-3{04}  10 км  слаб. снег  10/8 300 м средняя 
[Sc|Ac As]
-1 -1.4 97 -2  1010.2  -0.6  743  300           
03 21.01.20 тихо () -2{03}  10 км  слаб. снег  10/8 300 м средняя 
[Sc|Ac As]
-1.4 -1.9 96 -1  1009.3  -1  742  301  -1.5    28  равномерный
сухой снег
100% 
06 21.01.20 200 (Ю) 1-2{03}  4000 м  слаб. снег  10/8 300 м средняя 
[Sc|Ac As]
-1.3 -1.8 96 -1  1007.7  -1.6  741  300           
09 21.01.20 200 (Ю) 2-3{04}  10 км  в посл. час снег  10/10 300 м 
[Sc]
-0.9 -1.9 93 -2  1005.9  -1.6  739  299           
12 21.01.20 190 (Ю) 2-5  10 км  {снег}  10/10 300 м 
[Sc]
-0.6 -2.1 90 -1  1003.6  -2.3  738  298           
15 21.01.20 210 (ЮЗ) 3-4{07}  10 км    10/10 600 м 
[Sc]
-1 -2.3 91 -3  1000.7  -3  735  298    -0.5  0.3     
18 21.01.20 180 (Ю) 6-7{08}  4000 м  слаб. снег  10/8 300 м средняя 
[Sc|Ac As]
-1.1 -1.8 95 -5  995.3  -5.2  732  296           
21 21.01.20 190 (Ю) 8-9{11}  1000 м  сильн. снег  10/10 200 м 
[Frnb|Ns]
-1.3 -2.1 94 -6  990.5  -4.7  728  295           
00 22.01.20 180 (Ю) 6-9{12}  4000 м  слаб. снег  10/10 200 м 
[Frnb|Ns]
-1.5 -2.3 94 -5  987.1  -3.3  726  294           
Время (UTC), дата Ветер
(°,м/с) 
Видим.   Явления Облачность Т
(°С)
Тd
(°С)
f(%) Тe
(°С)
Pmin
(гПа)
dP
(гПа)
Po
(мм)
O2
(г/м3)
Тmin Tmax R s Состояние
почвы

Для получения пояснительной информации подведите курсор к названию столбца.

ПОГОДА в Ижевске - архив

Всё, что Вы хотите узнать о погоде в Ижевске - удобно и подробно!

Выберите нужную дату (начиная с 1 января 2019* года) и нажмите кнопку "Найти".
Будут отображены архивные сводки погоды по пункту Ижевск, начиная с указанной даты.


Отображать данные в формате CSV (для использования в таблицах Excel)


Внимание! Наш архив погоды предназначен исключительно для личного некоммерческого использования в познавательных целях. Если Вам необходимы официальные справки о состоянии погоды (для производственных, юридических, коммерческих и т.п. целей), обращайтесь в органы Росгидромета.

*Примечание: данная дата относится к архиву по метеостанциям СССР (Россия, СНГ, Балтия).
Архив по метеостанциям Зарубежной Европы и Азии (кроме Китая) хранится 10 дней, по другим регионам земного шара (Китай, Африка, Америка, Австралия, Океания) - 1 день.

Ижевск - район местоположения метеостанции


Название, широта, долгота, высота метеостанции:
Ижевск 56.8°ш. 53.4°д. 159 м над ур. моря [Российская Федерация]

Дополнительная информация

В oтличие oт бoльшинства пoгoдных сайтoв мы публикуем пoдрoбную метеoинфoрмацию в детальнoм прoфессиoнальнoм фoрмате.

Характеристики температуры и влажнoсти вoздуха измеряются на высoте 2 м в тени вдали oт зданий и деревьев.
Скoрoсть ветра измеряется на высoте 10 м (на урoвне рoста челoвека скoрoсть ветра ниже в 1.5-2 раза). Если метеoстанция нахoдится в гoрoде или в лесу, тo скoрoсть ветра занижена на 2-4 м/с пo сравнению с oткрытым местoм. Скoрoсть ветра над акватoриями крупных рек и oзёр, а также на вершинах хoлмoв на 2-5 м/с выше, чем в oбычных услoвиях.
Атмoсфернoе давление в разных тoчках местнoсти мoжет значительнo oтличаться oт давления на метеoстанции, в зависимoсти oт услoвий рельефа (при пoдъёме на 10 м давление пoнижается примернo на 1 мм рт.ст.).